Location: Newark
(16.3678°N, 77.8722°E)
Time: 23:07:42
(UTC+00:00)

Tiros 1 - Pass Details

Date: 14 December 2019
Orbit: 630 x 664 km, 48.4° (Epoch: 22 January)

Event Time Altitude Azimuth Distance (km) Brightness Sun altitude
Rises 20:04:35 0° 192° (SSW) 2,981 - -69.7°
Reaches altitude 10° 20:07:25 10° 176° (S) 2,068 - -69.1°
Maximum altitude 20:10:58 21° 127° (SE) 1,480 - -68.3°
Drops below altitude 10° 20:14:30 10° 79° (E) 2,061 - -67.5°
Sets 20:17:19 0° 63° (ENE) 2,968 - -66.9°
